Estación meteorológica de Calldetenes (Osona, Plana de Vic)

Consulta los datos en tiempo real de la estación meteorológica de Calldetenes





Hora UTC 19:40
Temperatura 26.2 ºC
Suelo 15 cm 25.5 ºC
Humedad 48.4 %
Presión 1023.4 hPa
Pluja 0.0 mm
Velocidad viento 3.3 km/h
Dirección viento SW
Radiación solar 0.1 W/m²

Webcam

Datos diarios 2026-09-05



Hora UTC (invierno +1h; verano +2h)
Temperatura (ºC) Humedad (%) Presión (hPa) Velocidad viento (km/h) Precipitación (mm) Radiación solar (W/m²)
Hora UTC Aire Suelo 15 cm Humedad Presión Vel. Dir. Vel. Max Dir. Intent. máx 5 min. Rad. Sol.
00:05 20.1 20.1 83.5 1022.7 5.6 ESE 5.6 ESE 0.0 0.1
00:10 20.3 20.1 82.0 1022.7 4.5 ESE 7.4 ESE 0.0 0.1
00:15 19.8 20.0 83.3 1022.7 5.3 ESE 7.4 ESE 0.0 0.1
00:20 19.7 19.8 84.1 1022.7 5.2 ESE 7.1 ESE 0.0 0.1
00:25 19.7 19.7 84.1 1022.7 2.6 SE 5.3 SE 0.0 0.1
00:30 19.6 19.7 84.3 1022.7 2.4 SE 5.6 SE 0.0 0.1
00:35 19.6 19.6 84.3 1022.7 0.3 SSE 1.8 SSE 0.0 0.1
00:40 19.4 19.5 85.3 1022.7 0.0 S 1.1 S 0.0 0.1
00:45 19.4 19.4 85.3 1022.7 0.1 SE 1.4 SE 0.0 0.1
00:50 19.3 19.3 84.5 1022.7 3.7 ESE 6.0 ESE 0.0 0.1
00:55 19.2 19.3 85.9 1022.6 5.1 ESE 6.0 ESE 0.0 0.1
01:00 19.3 19.2 84.3 1022.6 2.0 ESE 5.3 ESE 0.0 0.1
01:05 19.0 19.1 85.4 1022.6 3.1 SE 5.3 SE 0.0 0.1
01:10 19.0 19.0 85.7 1022.6 0.4 SSE 2.5 S 0.0 0.1
01:15 19.0 18.9 86.6 1022.7 0.0 NNE 0.0 S 0.0 0.1
01:20 19.2 19.0 85.5 1022.7 0.2 ESE 1.8 ESE 0.0 0.1
01:25 19.1 19.0 84.5 1022.7 0.0 ESE 1.1 ESE 0.0 0.1
01:30 19.2 19.0 84.4 1022.7 3.5 SE 5.3 ESE 0.0 0.1
01:35 19.1 18.9 82.1 1022.7 0.6 SE 2.5 SSE 0.0 0.1
01:40 19.0 18.8 84.3 1022.7 2.9 SE 5.3 ESE 0.0 0.1
01:45 19.0 18.8 83.7 1022.7 2.4 SE 5.6 ESE 0.0 0.1
01:50 18.9 18.8 83.4 1022.7 0.2 SSE 1.4 SSE 0.0 0.1
01:55 18.8 18.6 83.9 1022.7 0.0 NNE 0.0 SSE 0.0 0.1
02:00 18.6 18.5 84.6 1022.7 1.0 ESE 4.2 ESE 0.0 0.1
02:05 18.6 18.4 84.7 1022.8 3.5 ESE 4.9 ESE 0.0 0.1
02:10 18.6 18.4 83.5 1022.8 4.3 ESE 6.4 ESE 0.0 0.1
02:15 18.4 18.3 83.6 1022.8 5.4 ESE 7.1 ESE 0.0 0.1
02:20 18.3 18.2 84.7 1022.8 4.7 ESE 6.0 ESE 0.0 0.1
02:25 18.2 18.0 85.0 1022.6 5.2 ESE 7.1 ESE 0.0 0.1
02:30 18.2 18.0 85.2 1022.6 3.7 SE 5.6 ESE 0.0 0.1
02:35 18.2 18.1 84.8 1022.7 1.1 SE 2.5 SE 0.0 0.1
02:40 18.2 18.0 85.7 1022.7 0.0 NNE 0.0 SSW 0.0 0.1
02:45 18.3 18.1 85.1 1022.7 0.6 SE 1.8 SE 0.0 0.1
02:50 18.3 18.1 85.0 1022.7 2.0 SSE 2.8 SSE 0.0 0.1
02:55 18.3 18.1 85.0 1022.7 2.3 SSW 3.5 SSW 0.0 0.1
03:00 18.4 18.0 86.1 1022.7 3.5 SW 5.6 SSW 0.0 0.1
03:05 18.5 18.0 85.0 1022.7 3.2 S 6.0 SSE 0.0 0.1
03:10 18.6 18.1 83.1 1022.7 1.5 S 6.0 S 0.0 0.1
03:15 18.2 17.9 84.8 1022.7 1.9 SSE 3.2 SE 0.0 0.1
03:20 18.1 17.8 85.6 1022.7 2.3 SSW 3.9 SSW 0.0 0.1
03:25 18.2 17.7 86.2 1022.8 2.6 SSE 4.2 SSE 0.0 0.1
03:30 18.2 17.8 85.3 1022.8 3.0 SE 4.9 E 0.0 0.1
03:35 18.2 17.8 85.4 1022.8 4.1 E 4.9 E 0.0 0.1
03:40 18.2 17.9 84.8 1022.8 2.5 ESE 3.9 E 0.0 0.1
03:45 18.1 17.9 84.7 1022.9 2.5 SE 3.5 ESE 0.0 0.1
03:50 18.1 17.8 85.4 1022.9 4.3 ESE 6.7 ESE 0.0 0.1
03:55 17.7 17.7 84.8 1022.8 2.0 SE 4.6 ESE 0.0 0.1
04:00 17.6 17.6 86.6 1022.8 0.1 SE 1.4 SE 0.0 0.1
04:05 17.5 17.5 87.1 1022.8 1.6 E 3.5 ESE 0.0 0.1
04:10 17.6 17.5 87.5 1022.8 3.2 ESE 4.9 ESE 0.0 0.1
04:15 17.8 17.5 86.5 1022.8 2.1 ESE 4.9 ESE 0.0 0.1
04:20 17.5 17.4 85.4 1022.8 1.5 ESE 3.9 ESE 0.0 0.1
04:25 17.3 17.2 86.7 1022.8 1.1 ESE 2.5 SE 0.0 0.1
04:30 17.2 17.1 87.4 1022.8 3.2 ESE 4.9 ESE 0.0 0.1
04:35 17.0 17.0 86.5 1022.8 2.3 ESE 3.9 ESE 0.0 0.1
04:40 16.8 16.9 87.2 1022.8 1.2 ESE 3.2 SE 0.0 0.1
04:45 16.7 16.7 88.7 1022.9 2.1 ESE 3.2 ESE 0.0 0.1
04:50 16.8 16.7 88.4 1022.9 3.3 ESE 6.4 ESE 0.0 0.1
04:55 16.8 16.7 89.0 1023.0 5.3 ESE 6.4 ESE 0.0 0.1
05:00 16.9 16.8 87.9 1023.0 4.3 ESE 6.0 ESE 0.0 0.1
05:05 16.7 16.7 87.3 1023.0 0.9 SSE 3.5 SE 0.0 0.3
05:10 16.7 16.5 88.5 1023.0 1.0 S 2.5 S 0.0 0.6
05:15 16.7 16.5 89.4 1023.1 0.9 NE 2.8 E 0.0 1.2
05:20 16.8 16.6 89.1 1023.1 1.9 E 3.2 E 0.0 2.0
05:25 16.8 16.7 88.0 1023.1 1.0 E 2.5 ENE 0.0 3.0
05:30 16.8 16.8 88.0 1023.1 1.6 SE 2.5 SE 0.0 4.8
05:35 16.8 16.8 88.3 1023.1 1.6 S 2.8 SE 0.0 8.0
05:40 16.9 16.8 88.5 1023.1 1.4 S 2.5 S 0.0 12.0
05:45 17.0 16.8 88.1 1023.2 0.0 NNE 0.0 SSE 0.0 15.8
05:50 17.0 16.9 88.1 1023.2 0.6 SSW 2.1 S 0.0 19.8
05:55 17.2 16.9 87.4 1023.3 0.1 W 1.4 WNW 0.0 23.7
06:00 17.3 17.0 86.8 1023.3 2.0 E 3.5 E 0.0 26.4
06:05 17.4 17.2 87.0 1023.3 2.1 ESE 3.2 E 0.0 29.2
06:10 17.6 17.3 89.0 1023.3 1.3 SE 2.8 SE 0.0 32.3
06:15 17.4 17.1 88.6 1023.4 0.0 ESE 1.1 ESE 0.0 35.4
06:20 17.2 16.7 88.7 1023.4 1.0 SE 2.8 SE 0.0 37.4
06:25 17.3 16.5 88.9 1023.5 1.0 SE 2.1 SE 0.0 47.4
06:30 17.4 16.4 88.5 1023.5 0.0 SE 1.1 SE 0.0 74.2
06:35 17.6 16.5 88.7 1023.5 0.0 NNE 0.0 SE 0.0 98.2
06:40 17.8 16.6 87.9 1023.5 0.0 NNE 0.0 SE 0.0 117.8
06:45 18.0 16.8 87.0 1023.6 0.0 NNE 0.0 SE 0.0 129.4
06:50 18.4 17.1 87.1 1023.6 0.2 ENE 1.4 ENE 0.0 145.3
06:55 18.8 17.4 85.1 1023.7 1.0 ENE 2.5 ENE 0.0 158.5
07:00 19.1 17.7 83.4 1023.7 2.1 ENE 3.5 ENE 0.0 172.9
07:05 19.4 17.9 81.7 1023.8 1.1 ENE 3.5 E 0.0 188.1
07:10 19.6 18.1 81.0 1023.8 0.9 ENE 3.5 ENE 0.0 202.1
07:15 19.9 18.2 76.5 1023.8 2.6 NE 4.2 NE 0.0 216.9
07:20 20.2 18.4 73.6 1023.8 1.4 N 3.2 ENE 0.0 231.2
07:25 20.4 18.4 73.1 1023.8 1.9 NW 3.2 WNW 0.0 246.0
07:30 20.6 18.5 71.8 1023.8 1.2 NW 3.5 NW 0.0 259.8
07:35 20.8 18.6 72.1 1023.9 2.8 NNW 7.1 NE 0.0 272.0
07:40 20.9 18.7 70.2 1023.9 3.8 NNE 7.1 NE 0.0 287.2
07:45 21.1 18.9 69.7 1023.9 4.4 N 8.1 N 0.0 301.2
07:50 21.3 19.0 69.2 1023.9 3.1 N 5.6 NNE 0.0 318.0
07:55 21.5 19.2 68.4 1023.9 2.4 ENE 4.9 NE 0.0 333.5
08:00 21.7 19.3 67.5 1023.9 1.1 N 5.6 NNE 0.0 348.6
08:05 21.8 19.5 67.5 1023.9 0.9 N 3.2 NNW 0.0 362.2
08:10 22.0 19.6 66.3 1023.9 1.8 NNE 5.6 NNE 0.0 375.3
08:15 22.2 19.8 65.9 1023.9 2.3 NE 6.0 ENE 0.0 388.0
08:20 22.4 19.9 66.0 1023.9 3.1 NE 6.4 NE 0.0 402.9
08:25 22.7 20.1 63.3 1023.9 0.0 NE 1.4 NNE 0.0 416.3
08:30 22.9 20.3 62.3 1023.9 0.5 NW 3.2 NW 0.0 428.9
08:35 23.1 20.4 61.6 1023.9 1.6 NNW 3.9 NNW 0.0 443.0
08:40 23.2 20.5 62.1 1023.9 1.5 NW 5.6 WSW 0.0 456.1
08:45 23.6 20.7 59.7 1024.0 1.6 SSW 4.2 W 0.0 468.5
08:50 24.1 20.9 58.4 1024.0 1.4 SSE 3.5 SSE 0.0 480.3
08:55 24.5 21.2 57.8 1023.9 3.2 S 4.9 SSW 0.0 493.6
09:00 24.8 21.5 57.7 1023.9 0.7 SW 3.5 SSW 0.0 505.2
09:05 24.8 21.7 57.3 1023.9 0.3 SSW 2.8 SSW 0.0 518.7
09:10 25.1 21.8 57.4 1023.9 1.8 SW 3.5 WSW 0.0 530.7
09:15 25.4 22.0 56.6 1024.0 1.7 SW 3.9 SSW 0.0 542.6
09:20 25.6 22.3 56.8 1024.0 2.1 SW 4.9 WSW 0.0 554.0
09:25 25.8 22.5 57.1 1023.9 1.6 W 3.2 WSW 0.0 565.0
09:30 26.0 22.9 56.3 1023.9 1.7 W 3.5 WNW 0.0 575.9
09:35 26.4 23.2 55.8 1023.9 1.4 NW 4.2 NW 0.0 586.5
09:40 27.1 23.6 54.5 1023.9 2.9 NNW 6.7 N 0.0 597.2
09:45 27.7 24.1 51.8 1023.8 1.9 WNW 3.9 W 0.0 607.3
09:50 28.6 24.7 48.8 1023.8 2.6 NW 4.6 WNW 0.0 616.5
09:55 29.2 25.4 46.7 1023.7 3.2 WNW 6.4 WSW 0.0 625.9
10:00 30.1 26.2 44.8 1023.7 1.4 W 4.9 WSW 0.0 631.1
10:05 30.5 27.3 44.2 1023.6 1.0 WSW 3.9 WSW 0.0 640.0
10:10 31.4 28.3 42.0 1023.6 3.3 WNW 6.4 WSW 0.0 650.4
10:15 32.1 29.1 39.8 1023.5 2.6 NW 4.9 W 0.0 658.7
10:20 31.7 29.8 40.3 1023.5 0.1 E 1.4 NE 0.0 667.7
10:25 32.4 30.5 39.4 1023.4 2.5 N 5.6 NNW 0.0 676.2
10:30 32.6 31.2 38.2 1023.4 2.7 NW 6.0 NW 0.0 682.9
10:35 32.5 31.7 37.9 1023.2 3.1 N 6.4 N 0.0 689.3
10:40 32.6 32.1 38.0 1023.2 1.8 NW 4.2 NW 0.0 695.3
10:45 34.2 32.9 33.6 1023.1 4.1 W 6.7 NW 0.0 702.2
10:50 34.5 33.7 33.1 1023.1 4.1 NW 7.8 NW 0.0 707.7
10:55 34.6 34.5 30.8 1023.0 4.7 NNW 12.4 WNW 0.0 713.7
11:00 35.2 35.6 27.6 1023.0 7.0 S 16.6 S 0.0 720.5
11:05 35.6 37.0 25.6 1022.9 8.1 S 16.2 SSW 0.0 723.5
11:10 35.6 38.1 25.8 1022.9 12.7 SSW 28.9 SSW 0.0 726.5
11:15 35.5 38.6 26.2 1022.8 15.4 S 23.6 SSW 0.0 729.7
11:20 35.9 39.1 26.2 1022.8 11.5 S 20.1 S 0.0 733.1
11:25 36.2 39.9 26.1 1022.7 10.8 SSE 22.6 SSE 0.0 736.1
11:30 36.2 40.4 25.5 1022.7 14.1 S 26.1 S 0.0 737.8
11:35 36.1 40.7 25.6 1022.7 15.6 S 24.7 S 0.0 739.8
11:40 36.1 40.8 25.6 1022.7 13.1 S 27.9 S 0.0 739.8
11:45 36.1 41.1 25.6 1022.7 14.2 SSE 31.4 SSW 0.0 740.7
11:50 35.9 41.1 25.7 1022.7 16.6 SSW 29.3 SSW 0.0 742.8
11:55 36.1 41.1 25.6 1022.6 13.2 S 23.6 SSW 0.0 742.3
12:00 36.1 41.3 25.5 1022.6 18.5 S 31.4 S 0.0 742.4
12:05 36.1 41.4 25.6 1022.5 18.4 S 32.5 SSE 0.0 739.9
12:10 36.2 41.5 25.3 1022.5 23.0 S 36.3 SSW 0.0 740.6
12:15 36.0 41.4 25.6 1022.5 20.5 SSW 33.2 SSW 0.0 739.9
12:20 36.0 41.5 25.7 1022.5 18.2 SSW 33.5 SSW 0.0 735.1
12:25 36.2 41.6 25.5 1022.5 22.1 S 32.5 S 0.0 736.8
12:30 35.8 41.6 25.7 1022.5 16.0 S 30.0 S 0.0 733.8
12:35 36.0 41.5 25.5 1022.4 22.0 SSW 34.2 SSW 0.0 732.7
12:40 36.1 41.4 25.4 1022.4 19.8 SSW 37.8 S 0.0 727.0
12:45 36.0 41.2 25.5 1022.4 19.9 S 34.6 SSE 0.0 721.5
12:50 36.0 41.1 25.7 1022.4 17.0 S 31.8 S 0.0 720.6
12:55 36.2 41.2 25.4 1022.3 18.5 S 31.4 SW 0.0 715.1
13:00 36.1 41.1 25.7 1022.3 19.8 S 31.8 S 0.0 710.5
13:05 35.9 40.8 26.0 1022.2 19.9 SSW 37.0 SSW 0.0 704.4
13:10 36.1 40.4 26.2 1022.2 17.9 SSW 31.4 S 0.0 698.7
13:15 36.3 39.8 25.7 1022.2 17.1 S 34.2 SSW 0.0 689.3
13:20 36.5 38.9 25.8 1022.2 14.6 S 32.1 S 0.0 683.3
13:25 36.2 38.3 26.0 1022.1 22.2 S 36.0 S 0.0 676.7
13:30 35.8 37.4 26.5 1022.1 20.8 S 32.8 SSW 0.0 442.6
13:35 36.1 36.6 26.2 1022.1 18.0 S 32.5 S 0.0 129.3
13:40 35.8 36.2 26.4 1022.1 20.3 S 37.0 S 0.0 128.4
13:45 35.8 35.7 26.4 1022.1 19.9 S 34.2 SSW 0.0 128.3
13:50 36.0 35.4 26.2 1022.1 18.1 SSW 34.9 SSW 0.0 129.1
13:55 36.0 35.2 26.0 1021.9 23.6 S 40.2 SSW 0.0 274.9
14:00 35.4 34.9 26.7 1021.9 22.0 S 37.4 SSW 0.0 621.6
14:05 35.8 34.8 26.4 1021.9 18.7 SSW 28.2 SW 0.0 616.3
14:10 35.9 34.7 26.1 1021.9 20.7 SSW 34.6 SSW 0.0 608.4
14:15 35.6 34.6 26.4 1022.0 17.1 SSW 28.9 SSE 0.0 601.1
14:20 35.6 34.5 26.3 1022.0 20.8 S 32.5 SSW 0.0 593.1
14:25 35.4 34.4 26.6 1022.0 20.1 SSW 34.2 SW 0.0 581.1
14:30 35.3 34.3 26.8 1022.0 20.0 SSW 33.5 S 0.0 571.0
14:35 35.4 34.3 26.9 1022.1 20.7 SSW 39.5 SSW 0.0 563.6
14:40 35.2 34.2 27.2 1022.1 20.0 SSW 30.7 SSW 0.0 555.9
14:45 35.4 34.2 27.1 1022.0 18.1 SSW 30.0 SSE 0.0 543.7
14:50 35.4 34.2 27.0 1022.0 19.2 S 33.2 SSW 0.0 548.0
14:55 35.0 34.2 27.6 1021.9 18.9 SSW 32.8 S 0.0 568.4
15:00 35.1 34.3 27.5 1021.9 19.0 S 31.1 S 0.0 555.2
15:05 35.2 34.4 27.5 1021.9 18.6 S 31.8 SSE 0.0 547.4
15:10 35.2 34.5 27.5 1021.9 18.0 SSW 31.1 SSW 0.0 542.5
15:15 34.9 34.5 28.3 1021.9 20.2 SSW 30.3 SSW 0.0 544.6
15:20 34.9 34.5 28.8 1021.9 20.6 SSW 33.5 SSW 0.0 520.3
15:25 34.8 34.5 29.1 1021.9 18.2 SSW 27.9 SSW 0.0 509.1
15:30 34.6 34.4 29.2 1021.9 19.1 SSW 28.6 SSW 0.0 503.2
15:35 34.6 34.3 29.2 1021.9 18.2 SSW 29.3 S 0.0 480.2
15:40 34.6 34.2 29.3 1021.9 17.8 SSW 33.2 S 0.0 446.5
15:45 34.2 34.0 29.6 1022.0 18.9 SSW 28.9 S 0.0 409.0
15:50 33.9 33.7 29.9 1022.0 16.2 SSW 26.5 SSW 0.0 392.9
15:55 33.9 33.4 30.2 1022.1 15.8 SSW 26.1 S 0.0 376.0
16:00 34.1 33.2 30.0 1022.1 10.9 SW 18.4 SSW 0.0 347.8
16:05 33.8 33.0 30.7 1022.2 15.2 SSW 25.8 SSW 0.0 335.7
16:10 33.7 32.9 30.9 1022.2 12.1 SW 22.6 SSW 0.0 328.8
16:15 33.5 32.8 31.1 1022.3 17.5 SSW 26.1 SSW 0.0 317.9
16:20 33.3 32.7 31.3 1022.3 12.8 SW 24.0 SSW 0.0 306.8
16:25 33.3 32.6 31.4 1022.3 13.0 SW 22.6 SSW 0.0 291.5
16:30 33.2 32.5 32.0 1022.3 15.1 SSW 25.1 S 0.0 265.3
16:35 33.1 32.5 31.9 1022.3 15.1 SSW 25.1 SSW 0.0 243.4
16:40 32.8 32.3 32.0 1022.3 17.1 SSW 23.6 SSW 0.0 201.6
16:45 32.8 32.2 32.5 1022.3 13.9 SSW 22.2 S 0.0 124.9
16:50 32.7 32.1 32.5 1022.3 15.2 SSW 22.9 SSW 0.0 104.6
16:55 32.5 32.0 33.3 1022.4 15.4 SSW 21.2 SSW 0.0 102.6
17:00 32.4 31.8 33.4 1022.4 12.6 S 19.8 S 0.0 81.9
17:05 32.4 31.7 33.6 1022.4 12.2 S 20.1 SSE 0.0 81.1
17:10 32.4 31.7 33.5 1022.4 15.1 SSW 22.6 S 0.0 76.9
17:15 32.1 31.6 34.3 1022.5 13.3 SSW 24.3 SSW 0.0 68.6
17:20 31.9 31.5 34.5 1022.5 13.7 S 20.5 SSW 0.0 63.6
17:25 31.8 31.3 34.9 1022.6 15.4 S 22.2 S 0.0 58.5
17:30 31.6 31.2 35.4 1022.6 13.1 SSW 22.2 SSW 0.0 53.2
17:35 31.5 31.0 35.7 1022.6 12.1 SSW 20.5 S 0.0 47.2
17:40 31.3 30.8 36.2 1022.6 13.5 S 21.2 SSW 0.0 41.4
17:45 31.1 30.6 36.7 1022.6 13.9 SSW 19.4 S 0.0 34.7
17:50 30.9 30.4 37.5 1022.6 12.3 SSW 20.8 S 0.0 28.5
17:55 30.8 30.2 37.8 1022.7 12.4 SSW 18.4 SSW 0.0 21.6
18:00 30.6 30.0 38.2 1022.7 12.7 SSW 21.2 SSW 0.0 15.2
18:05 30.4 29.8 38.7 1022.7 14.1 SSW 20.5 SSW 0.0 10.3
18:10 30.3 29.6 39.3 1022.7 12.2 SSW 18.7 SSW 0.0 6.7
18:15 30.0 29.4 39.9 1022.7 12.5 SSW 18.4 SSW 0.0 4.5
18:20 29.7 29.1 40.8 1022.7 14.2 SSW 20.1 S 0.0 2.6
18:25 29.4 28.9 41.5 1022.7 12.4 SSW 20.5 S 0.0 1.4
18:30 29.2 28.7 41.9 1022.7 10.6 SSW 20.1 S 0.0 0.7
18:35 29.0 28.5 42.3 1022.9 10.7 SSW 19.4 S 0.0 0.3
18:40 28.8 28.3 42.7 1022.9 11.2 SSW 18.7 SSW 0.0 0.2
18:45 28.6 28.1 43.1 1023.1 8.5 S 13.4 SSW 0.0 0.1
18:50 28.5 27.9 43.3 1023.1 5.0 SSW 9.2 SSW 0.0 0.1
18:55 28.3 27.6 43.6 1023.2 2.5 SW 7.1 SW 0.0 0.1
19:00 28.0 27.3 43.8 1023.2 4.3 SW 7.8 WSW 0.0 0.1
19:05 27.8 27.1 44.4 1023.2 3.1 SSW 6.0 SW 0.0 0.1
19:10 27.6 26.8 44.7 1023.2 2.2 SSW 4.6 SSW 0.0 0.1
19:15 27.4 26.6 45.2 1023.3 2.7 WSW 4.2 WSW 0.0 0.1
19:20 27.1 26.3 45.9 1023.3 1.0 WSW 3.2 SW 0.0 0.1
19:25 26.8 26.0 46.9 1023.3 0.5 W 3.2 WSW 0.0 0.1
19:30 26.6 25.8 47.3 1023.3 2.4 W 4.9 W 0.0 0.1
19:35 26.4 25.6 47.6 1023.4 1.0 WSW 3.2 WSW 0.0 0.1
19:40 26.2 25.5 48.4 1023.4 3.3 SW 7.1 SW 0.0 0.1
Máxima 36.5 41.6 89.4 1024.0 23.6 S 40.2 SSW 0.0 742.8
Mínima 16.7 16.4 25.3 1021.9
Total 0.0